Date String (YYYY-MM-DD hh:mm:ss) UTC,Instrument flags,absolute air pressure of the measurement (hPa),sample flow rate (lpm),inlet stack bypass flow (lpm),air temperature of the measurement (°C),ambient temperature measured by the external sensor (°C),aerosol sample conditioner tube jacket temperature (°C),OPC LED temperature (°C),internal box temperature (°C),relative humidity of the measurement (%),span deviation,mass concentration of particles derived from Lorenz-Mie calculation of OPC scattering (μg/m³),mass concentration of particles derived from Lorenz-Mie calculation of OPC scattering (μg/m³),mass concentration of particles derived from Lorenz-Mie calculation of OPC scattering (μg/m³)
DateTimeUTC,F1_M11,P_M11,Q1_M11,Q2_M11,T1_M11,T2_M11,T3_M11,T4_M11,T5_M11,U1_M11,ZSPAN_M11,X2_M11,X0_M11,X1_M11
2024-01-30 15:00:00,SystemResetWarning,0835.3,5.01,000.00,021.2,020.3,000.0,029.5,022.6,15.9,0000.0,0001.52,0004.56,0001.26
2024-01-30 15:01:00,SystemResetWarning,0835.3,5.00,000.00,021.2,020.3,000.0,029.5,022.6,15.5,0000.0,0001.49,0004.72,0001.24
2024-01-30 15:02:00,SystemResetWarning,0835.3,4.99,000.00,021.2,020.3,000.0,029.5,022.6,15.5,0000.0,0001.47,0004.78,0001.21
2024-01-30 15:03:00,SystemResetWarning,0835.3,5.00,000.00,021.2,020.3,000.0,029.5,022.6,15.6,0000.0,0001.51,0004.28,0001.22
2024-01-30 15:04:00,SystemResetWarning,0835.3,4.99,000.00,021.2,020.3,000.0,029.5,022.6,15.7,0000.0,0001.59,0005.03,0001.27
2024-01-30 15:05:00,SystemResetWarning,0835.3,5.01,000.00,021.2,020.3,000.0,029.5,022.6,15.7,0000.0,0001.66,0004.56,0001.32
2024-01-30 15:06:00,SystemResetWarning,0835.3,5.01,000.00,021.2,020.3,000.0,029.5,022.6,16.0,0000.0,0001.67,0004.26,0001.36
2024-01-30 15:07:00,SystemResetWarning,0835.3,5.01,000.00,021.2,020.3,000.0,029.5,022.6,16.0,0000.0,0001.68,0004.86,0001.38
2024-01-30 15:08:00,SystemResetWarning,0835.3,5.00,000.00,021.2,020.4,000.0,029.5,022.6,15.9,0000.0,0001.74,0005.88,0001.42
2024-01-30 15:09:00,SystemResetWarning,0835.3,5.00,000.00,021.2,020.4,000.0,029.5,022.7,16.1,0000.0,0001.81,0005.82,0001.48
2024-01-30 15:10:00,SystemResetWarning,0835.3,5.00,000.00,021.2,020.4,000.0,029.5,022.7,16.4,0000.0,0001.88,0005.91,0001.53
2024-01-30 15:11:00,SystemResetWarning,0835.3,5.00,000.00,021.2,020.4,000.0,029.5,022.7,16.5,0000.0,0001.97,0006.73,0001.59
2024-01-30 15:12:00,SystemResetWarning,0835.3,5.00,000.00,021.2,020.4,000.0,029.5,022.7,16.3,0000.0,0002.09,0007.47,0001.67
2024-01-30 15:13:00,SystemResetWarning,0835.2,5.00,000.00,021.2,020.4,000.0,029.5,022.7,16.2,0000.0,0002.21,0007.69,0001.74
2024-01-30 15:14:00,SystemResetWarning,0835.3,5.00,000.00,021.3,020.5,000.0,029.5,022.7,16.2,0000.0,0002.27,0007.76,0001.78
2024-01-30 15:15:00,SystemResetWarning,0835.2,5.00,000.00,021.3,020.5,000.0,029.5,022.7,15.9,0000.0,0002.25,0007.49,0001.77
2024-01-30 15:16:00,SystemResetWarning,0835.2,5.00,000.00,021.3,020.5,000.0,029.5,022.7,15.8,0000.0,0002.21,0007.51,0001.74
2024-01-30 15:17:00,SystemResetWarning,0835.2,5.01,000.00,021.3,020.5,000.0,029.5,022.7,15.8,0000.0,0002.22,0007.65,0001.73
2024-01-30 15:18:00,SystemResetWarning,0835.2,5.01,000.00,021.3,020.5,000.0,029.5,022.7,16.0,0000.0,0002.21,0007.24,0001.71
2024-01-30 15:19:00,SystemResetWarning,0835.3,5.00,000.00,021.3,020.6,000.0,029.6,022.8,16.9,0000.0,0002.14,0006.15,0001.67
2024-01-30 15:20:00,SystemResetWarning,0835.2,5.00,000.00,021.3,020.6,000.0,029.6,022.8,17.1,0000.0,0002.07,0006.00,0001.63
2024-01-30 15:21:00,SystemResetWarning,0835.3,4.99,000.00,021.3,020.6,000.0,029.6,022.8,16.8,0000.0,0002.00,0005.89,0001.59
2024-01-30 15:22:00,SystemResetWarning,0835.3,5.00,000.00,021.3,020.6,000.0,029.6,022.8,16.2,0000.0,0001.94,0005.13,0001.56
2024-01-30 15:23:00,SystemResetWarning,0835.3,4.99,000.00,021.3,020.6,000.0,029.6,022.8,16.2,0000.0,0001.91,0005.30,0001.52
2024-01-30 15:24:00,SystemResetWarning,0835.3,5.00,000.00,021.4,020.6,000.0,029.6,022.8,16.1,0000.0,0001.87,0005.10,0001.48
2024-01-30 15:25:00,SystemResetWarning,0835.3,5.01,000.00,021.4,020.6,000.0,029.6,022.9,15.8,0000.0,0001.76,0004.91,0001.44
2024-01-30 15:26:00,SystemResetWarning,0835.3,5.01,000.00,021.4,020.6,000.0,029.6,022.9,15.7,0000.0,0001.76,0004.96,0001.42
2024-01-30 15:27:00,SystemResetWarning,0835.3,5.01,000.00,021.4,020.7,000.0,029.6,022.9,15.5,0000.0,0001.74,0004.75,0001.41
2024-01-30 15:28:00,SystemResetWarning,0835.3,5.00,000.00,021.4,020.7,000.0,029.6,022.9,15.7,0000.0,0001.72,0004.67,0001.39
2024-01-30 15:29:00,SystemResetWarning,0835.3,5.00,000.00,021.4,020.7,000.0,029.6,022.9,15.7,0000.0,0001.73,0004.43,0001.37
2024-01-30 15:30:00,SystemResetWarning,0835.2,5.00,000.00,021.4,020.7,000.0,029.7,022.9,15.4,0000.0,0001.71,0005.66,0001.36
2024-01-30 15:31:00,SystemResetWarning,0835.2,5.00,000.00,021.4,020.7,000.0,029.7,022.9,15.7,0000.0,0001.70,0007.56,0001.35
2024-01-30 15:32:00,SystemResetWarning,0835.2,4.99,000.00,021.4,020.7,000.0,029.7,022.9,15.4,0000.0,0001.72,0007.62,0001.34
2024-01-30 15:33:00,SystemResetWarning,0835.2,5.00,000.00,021.4,020.7,000.0,029.7,022.9,15.5,0000.0,0001.74,0007.71,0001.32
2024-01-30 15:34:00,SystemResetWarning,0835.2,5.00,000.00,021.5,020.7,000.0,029.7,023.0,16.5,0000.0,0001.73,0007.48,0001.29
2024-01-30 15:35:00,SystemResetWarning,0835.3,5.01,000.00,021.5,020.8,000.0,029.7,023.0,16.7,0000.0,0001.65,0006.56,0001.28
2024-01-30 15:36:00,SystemResetWarning,0835.3,5.01,000.00,021.5,020.8,000.0,029.7,023.0,16.2,0000.0,0001.64,0006.49,0001.26
2024-01-30 15:37:00,SystemResetWarning,0835.3,5.01,000.00,021.5,020.8,000.0,029.7,023.0,16.2,0000.0,0001.59,0006.36,0001.24
2024-01-30 15:38:00,SystemResetWarning,0835.3,5.00,000.00,021.5,020.8,000.0,029.7,023.0,16.0,0000.0,0001.58,0006.31,0001.22
2024-01-30 15:39:00,SystemResetWarning,0835.3,5.00,000.00,021.5,020.8,000.0,029.7,023.0,16.3,0000.0,0001.56,0006.19,0001.22
2024-01-30 15:40:00,SystemResetWarning,0835.3,5.00,000.00,021.5,020.8,000.0,029.8,023.1,15.2,0000.0,0001.55,0006.13,0001.23
2024-01-30 15:41:00,SystemResetWarning,0835.3,5.00,000.00,021.6,020.8,000.0,029.8,023.1,15.2,0000.0,0001.55,0004.85,0001.23
2024-01-30 15:42:00,SystemResetWarning,0835.3,5.00,000.00,021.6,020.9,000.0,029.8,023.1,15.4,0000.0,0001.59,0002.78,0001.23
2024-01-30 15:43:00,SystemResetWarning,0835.3,5.00,000.00,021.6,020.9,000.0,029.8,023.1,15.3,0000.0,0001.61,0003.17,0001.23
2024-01-30 15:44:00,SystemResetWarning,0835.3,5.00,000.00,021.6,020.9,000.0,029.8,023.1,15.7,0000.0,0001.61,0003.48,0001.25
2024-01-30 15:45:00,SystemResetWarning,0835.3,5.00,000.00,021.6,020.9,000.0,029.8,023.1,16.1,0000.0,0001.76,0004.07,0001.38
2024-01-30 15:46:00,SystemResetWarning,0835.3,5.00,000.00,021.6,020.9,000.0,029.8,023.1,17.4,0000.0,0001.88,0004.39,0001.50
2024-01-30 15:47:00,SystemResetWarning,0835.3,5.00,000.00,021.6,021.0,000.0,029.8,023.2,17.8,0000.0,0001.96,0004.78,0001.60
2024-01-30 15:48:00,SystemResetWarning,0835.3,5.01,000.00,021.7,021.0,000.0,029.8,023.1,18.0,0000.0,0002.01,0004.92,0001.63
2024-01-30 15:49:00,SystemResetWarning,0835.3,5.01,000.00,021.7,021.0,000.0,029.9,023.2,17.2,0000.0,0002.06,0004.99,0001.67
2024-01-30 15:50:00,SystemResetWarning,0835.3,5.00,000.00,021.7,021.0,000.0,029.9,023.2,16.9,0000.0,0002.12,0005.69,0001.68
2024-01-30 15:51:00,SystemResetWarning,0835.3,5.00,000.00,021.7,021.1,000.0,029.9,023.2,16.8,0000.0,0002.11,0005.76,0001.68
2024-01-30 15:52:00,SystemResetWarning,0835.3,5.00,000.00,021.7,021.1,000.0,029.9,023.2,16.5,0000.0,0002.17,0005.97,0001.67
2024-01-30 15:53:00,SystemResetWarning,0835.3,5.00,000.00,021.7,021.1,000.0,029.9,023.3,16.5,0000.0,0002.18,0006.13,0001.67
2024-01-30 15:54:00,SystemResetWarning,0835.3,5.00,000.00,021.7,021.1,000.0,029.9,023.3,16.2,0000.0,0002.13,0005.92,0001.67
2024-01-30 15:55:00,SystemResetWarning,0835.3,5.00,000.00,021.7,021.1,000.0,029.9,023.3,16.4,0000.0,0002.10,0005.49,0001.66
2024-01-30 15:56:00,SystemResetWarning,0835.3,5.00,000.00,021.8,021.1,000.0,029.9,023.3,16.3,0000.0,0002.00,0004.97,0001.54
2024-01-30 15:57:00,SystemResetWarning,0835.3,4.99,000.00,021.8,021.2,000.0,029.9,023.3,17.0,0000.0,0001.86,0004.45,0001.40
2024-01-30 15:58:00,SystemResetWarning,0835.3,5.00,000.00,021.8,021.2,000.0,030.0,023.3,17.0,0000.0,0001.76,0003.89,0001.28
2024-01-30 15:59:00,SystemResetWarning,0835.3,5.00,000.00,021.8,021.2,000.0,030.0,023.4,16.6,0000.0,0001.71,0003.76,0001.22
